カタログに戻る

THORAD AGENA D DEB

運用中PO
NORAD 4857·DEBRIS·🇺🇸 United States

打ち上げ Apr 8, 1970 から Vandenberg Space Force Base

Loading…

次のパス (今後24時間)

TLE

最新Source: Space-Track

元期: Sep 14, 2026, 05:23 UTC

1 04857U 70025EM  26257.22433975  .00001681  00000-0  66324-3 0  9995
2 04857  99.7322 173.4454 0042200 211.8569 148.0056 14.30198192835688

AllMySatでTHORAD AGENA D DEBをリアルタイム追跡

Download on the App Store